Regional Weather Roundup
Issued by NWS

Home | Current Version | Previous Version | Text Only | Print | Product List | Glossary Off
Versions: 1 2 3 4 5 6 7 8 9 10 11 12 13 14 15 16 17 18 19 20 21 22 23 24 25 26 27 28 29 30 31 32 33 34 35 36 37 38 39 40 41 42 43 44 45 46 47 48 49 50

000
ASUS43 KOAX 242010
RWRNE

WEATHER ROUNDUP FOR NEBRASKA
NATIONAL WEATHER SERVICE OMAHA NE
300 PM CDT SUN JUL 24 2016

NOTES: SATELLITE DATA IS BEING USED TO AUGMENT CLOUD COVER ABOVE
       12000 FEET.
       "FAIR" INDICATES FEW OR NO CLOUDS BELOW 12,000 FEET WITH NO
       SIGNIFICANT WEATHER AND/OR OBSTRUCTIONS TO VISIBILITY.

  * THESE STATIONS DO NOT REPORT WEATHER SUCH AS RAIN...SNOW OR FOG.

NEZ001>004-019>022-054>056-242100-
NEBRASKA PANHANDLE

CITY           SKY/WX    TMP DP  RH WIND       PRES   REMARKS
SCOTTSBLUFF    SUNNY     85  54  34 E20G26    30.13F
ALLIANCE       SUNNY     82  51  34 SE20      30.16F
CHADRON        SUNNY     88  42  20 E8G23     30.11F
KIMBALL        MOSUNNY   83  58  43 SE15G22   30.19S
SIDNEY         SUNNY     85  55  35 SE15G23   30.17F
$$

NEZ057>060-069>072-079>082-242100-
SOUTHWEST NEBRASKA

CITY           SKY/WX    TMP DP  RH WIND       PRES   REMARKS
NORTH PLATTE   CLOUDY    81  60  48 E13       30.08F
IMPERIAL       MOSUNNY   86  54  33 SE24      30.07F
LEXINGTON      SUNNY     84  56  38 E17       30.07F
MCCOOK         SUNNY     88  57  34 E20       30.06F
OGALLALA       SUNNY     84  51  32 E13G20    30.13S
$$

NEZ005>010-023>029-035>040-094-242100-
NORTH CENTRAL NEBRASKA

CITY           SKY/WX    TMP DP  RH WIND       PRES   REMARKS
VALENTINE      MOSUNNY   83  48  29 VRB5      30.12F
AINSWORTH      SUNNY     83  58  42 E5        30.12F
BROKEN BOW     CLOUDY    82  60  47 NE9       30.10F
O`NEILL        CLOUDY    79  52  38 NE6       30.10S
ORD            CLOUDY    83  59  44 E9        30.05F
THEDFORD       CLOUDY    85  54  34 N8G16     30.14S
$$

NEZ041-046>049-061>064-073>077-083>087-242100-
SOUTH CENTRAL NEBRASKA

CITY           SKY/WX    TMP DP  RH WIND       PRES   REMARKS
GRAND ISLAND   MOSUNNY   88  58  36 NE15      30.06F
AURORA         PTSUNNY   84  64  50 N12G17    30.05F
HASTINGS       SUNNY     85  58  39 NE22G29   30.05F
HEBRON         CLOUDY    80  67  64 NE12      30.03R
HOLDREGE       SUNNY     85  57  38 NE16      30.07S
KEARNEY *      SUNNY     86  61  42 N12       30.08R
YORK           CLOUDY    81  64  57 N17       30.04F
$$

NEZ011>018-030>034-042>045-242100-
NORTHEAST NEBRASKA

CITY           SKY/WX    TMP DP  RH WIND       PRES   REMARKS
NORFOLK        CLOUDY    82  59  45 N10       30.06S
ALBION         CLOUDY    80  65  60 N6        30.08S
BLAIR          CLOUDY    82  67  58 N7        30.03R
FREMONT        CLOUDY    84  61  46 N8        30.04R
TEKAMAH        CLOUDY    84  65  52 NW9       30.01R
WAYNE          CLOUDY    82  63  51 N9        30.04F
$$

NEZ050>053-065>068-078-088>093-242100-
SOUTHEAST NEBRASKA

CITY           SKY/WX    TMP DP  RH WIND       PRES   REMARKS
LINCOLN        CLOUDY    81  67  62 N7        30.04R
OMAHA EPPLEY   CLOUDY    84  68  58 N9        30.00R
BEATRICE       CLOUDY    78  66  66 N8        30.01R
FALLS CITY     MOSUNNY   82  76  81 N6        29.94S
NEBRASKA CITY  CLOUDY    81  67  63 NW5       30.01R
PLATTSMOUTH    CLOUDY    81  65  57 N6        30.00R
$$

NEZ044-045-051>053-067-242100-
OMAHA AREA

CITY           SKY/WX    TMP DP  RH WIND       PRES   REMARKS
OMAHA EPPLEY   CLOUDY    84  68  58 N9        30.00R
BLAIR          CLOUDY    82  67  58 N7        30.03R
FREMONT        CLOUDY    84  61  46 N8        30.04R
MILLARD        PTSUNNY   83  66  55 N7        30.01R
OFFUTT AFB     CLOUDY    82  66  58 VRB5      30.00R
PLATTSMOUTH    CLOUDY    81  65  57 N6        30.00R
WAHOO          FAIR      83  66  56 N6        30.04R
$$



USA.gov is the U.S. government's official web portal to all federal, state and local government web resources and services.